sat.trackr.live / text

‹ back to catalog

UNKNOWN

NORAD 87042

UNKNOWN UNKNOWN UNKNOWN

§ Identity

Operator
Country
Launch date
Launch site
Launch vehicle
Mass (kg)
RCS (m²)

External: N2YO · Heavens-Above

§ Orbital elements

Epoch: 2026-05-24T01:41:23.961408Z

Period
102.32 min
Inclination
98.6918°
Eccentricity
0.0042717
Mean motion
14.07382237 rev/d
Perigee alt
837.4 km
Apogee alt
899.3 km
Semi-major
7,246.5 km
B*
2.4389e-4
RAAN
186.3017°
Arg perigee
359.3841°
Mean anomaly
0.7269°
Rev number
57,679

§ Raw data

UNKNOWN1 87042U          26144.07041622  .00000371  00000+0  24389-3 0  99992 87042  98.6918 186.3017 0042717 359.3841   0.7269 14.07382237576799

JSON: /api/v1/satellites/87042 · /tle

For live sub-satellite position, see the globe view (requires WebGL).

§ Visibility from observer

Set your observer location to see the next 7 days of passes ≥ 10°. The values pass through the URL so the page stays shareable.

No JS? Fill the form by hand. The geolocation button needs JavaScript.